Home   Weather   Compton   Past weeks

Flag for USA Past Weather in Compton, California, USA — Yesterday and Last 2 Weeks

Now
75 °F

Sunny.


Feels Like: 77 °F
Forecast: 67 / 87 °F
Wind: 3 mph from North

Location: Hawthorne Municipal Airport

Current Time: Aug 30, 2016 at 10:27:09 AM

Latest Report: Aug 30, 2016 at 9:53 AM


Visibility: 8 mi

Pressure: 29.88 "Hg

Humidity: 71%

Dew Point: 65 °F

Location of ComptonLocation

Past Weather in Compton — Graph

°F

Compton Temperature Yesterday

Maximum temperature yesterday: 81 °F (at 11:02 AM)
Minimum temperature yesterday: 67 °F (at 4:53 AM)
Average temperature yesterday: 74 °F

High & Low Weather Summary for the Past Weeks

 TemperatureHumidityPressure
High81 °F (Aug 15, 11:53 AM)97% (Aug 16, 5:53 AM)30.04 "Hg (Aug 16, 5:53 AM)
Low61 °F (Aug 17, 3:53 AM)27% (Aug 18, 1:53 AM)29.80 "Hg (Aug 16, 5:53 PM)
Average71 °F72%29.92 "Hg
* Reported Aug 15 8:53 AM — Aug 30 8:53 AM, Compton, Weather by CustomWeather, © 2016

Note: Actual official high and low records may vary slightly from our data, if they occured in-between our weather recording intervals... More about our weather records

Advertising

Compton Weather History for the Previous 24 Hours

Scroll right to see more
 ConditionsComfort  
Time TempWeatherWind HumidityBarometerVisibility
8:53 AM
Tue, Aug 30
71 °FPartly sunny.3 mph81%29.88 "Hg6 mi
7:53 AM70 °FLow clouds.6 mph84%29.88 "Hg6 mi
6:53 AM70 °FLow clouds.6 mph87%29.87 "Hg7 mi
5:53 AM70 °FLow clouds.5 mph87%29.87 "Hg8 mi
4:53 AM70 °FFog.5 mph90%29.86 "Hg6 mi
3:53 AM70 °FClear.No wind79%29.86 "Hg10 mi
2:53 AM71 °FClear.No wind73%29.86 "Hg10 mi
12:53 AM71 °FClear.No wind73%29.87 "Hg10 mi
11:53 PM
Mon, Aug 29
72 °FClear.No wind76%29.88 "Hg10 mi
10:53 PM72 °FClear.No wind76%29.88 "Hg10 mi
9:53 PM72 °FClear.No wind76%29.87 "Hg10 mi
8:53 PM72 °FClear.3 mph76%29.86 "Hg10 mi
7:53 PM72 °FSunny.7 mph73%29.84 "Hg10 mi
6:53 PM75 °FSunny.9 mph64%29.84 "Hg10 mi
5:53 PM77 °FSunny.13 mph54%29.84 "Hg10 mi
4:53 PM78 °FSunny.10 mph54%29.85 "Hg10 mi
3:53 PM80 °FSunny.13 mph54%29.85 "Hg10 mi
2:53 PM80 °FSunny.10 mph56%29.88 "Hg10 mi
1:53 PM81 °FSunny.12 mph58%29.91 "Hg10 mi
12:53 PM79 °FSunny.10 mph62%29.93 "Hg10 mi
11:53 AM80 °FSunny.13 mph60%29.95 "Hg10 mi
11:02 AM81 °FSunny.3 mph56%29.96 "Hg1 mi
10:53 AM79 °FSunny.No wind56%29.96 "Hg10 mi
Weather by CustomWeather, © 2016

See weather overviewHow to use our weather pages